Temperature
18 18 18 18 18 18 18 18 18 18 18 18 18 18 18 18 18 18 18 18 18 18 18 18 18 18 18 18 18 18 18 18 18 18 18 18 18 18 18 18 18 17 18
18 18 18 18 18 18 18 18 18 18 18 18 18 18 18 18 18 18 18 18 18 18 18 18 18 18 18 18 18 18 18 18 18 18 18 18 18 18 18 18 18 18 18
18 18 18 18 18 18 18 18 18 18 18 18 18 18 18 18 18 18 18 18 18 18 18 18 18 18 18 18 18 18 18 18 18 18 18 17 17 18 18 18 18 18 18
18 17 17 18 18 18 18 18 18 18 18 18 18 18 18 18 17 17 17 17 17 17 18 18 18 18 18 18 18 18 18 18 18 18 17 17 17 18 18 18 18 18 18
18 17 17 18 18 18 18 18 18 18 18 18 17 17 17 17 17 17 17 17 17 17 17 17 17 17 18 18 18 18 18 18 18 18 17 17 17 18 18 18 18 18 18
17 17 17 18 18 18 17 17 17 17 17 17 17 17 17 17 17 17 17 17 17 17 17 17 17 17 17 17 17 18 18 18 18 17 17 17 17 18 18 18 18 18 18
18 17 17 18 17 17 17 17 17 17 17 17 17 17 17 17 17 17 17 17 17 17 17 17 17 17 17 17 17 17 18 18 17 17 17 17 17 18 18 18 18 18 18
18 17 17 18 17 17 17 17 17 17 17 16 16 16 16 16 16 16 16 17 17 17 17 17 17 17 17 17 17 17 17 17 17 17 17 17 17 18 18 18 18 18 18
18 17 17 17 17 17 17 17 17 16 16 16 16 16 16 16 16 16 16 16 16 16 16 16 16 17 17 17 17 17 17 17 17 17 17 17 17 18 18 18 18 18 18
18 17 17 17 17 17 16 17 16 16 16 16 16 16 16 16 16 16 16 16 16 16 16 16 16 16 16 16 17 17 17 17 17 17 17 17 17 18 18 18 18 18 18
18 18 17 17 17 17 16 16 16 16 16 16 16 16 15 15 15 15 15 15 16 16 16 16 16 16 16 16 16 17 17 16 16 17 17 17 17 17 18 18 18 18 18
18 18 18 17 17 17 16 16 16 16 16 16 15 15 15 15 15 15 15 15 15 15 15 15 16 16 16 16 16 16 16 16 16 17 17 17 17 17 17 18 18 18 18
19 18 18 18 17 17 17 16 16 16 16 16 15 15 15 15 15 15 15 15 15 15 15 15 15 15 16 16 16 16 16 16 16 16 17 17 17 17 17 17 18 18 18
19 18 18 18 17 17 17 16 16 16 16 16 15 15 15 15 15 15 15 15 15 15 15 15 15 15 15 16 16 16 16 16 16 16 16 17 17 17 17 17 18 18 17
19 18 18 18 18 17 17 16 16 16 16 16 15 15 15 15 15 15 15 14 14 14 15 15 15 15 15 15 15 16 16 16 16 16 16 17 17 17 17 17 17 17 17
19 19 18 18 17 17 17 16 16 16 15 15 15 15 15 15 14 14 14 14 14 14 14 14 15 15 15 15 15 15 15 16 16 16 16 16 17 17 17 17 17 17 17
19 19 18 18 17 17 17 16 16 16 16 15 15 15 14 14 14 14 14 14 14 14 14 14 15 15 15 15 15 15 15 15 15 16 16 16 16 17 17 17 17 17 17
19 19 18 18 17 17 17 16 16 16 15 15 15 14 14 14 14 14 14 14 14 14 14 14 14 14 15 15 15 15 15 15 15 15 15 16 16 16 16 17 17 17 17
19 19 18 18 17 17 17 16 16 16 15 15 15 14 14 14 14 14 13 13 13 13 14 14 14 14 14 14 15 15 15 15 15 15 15 16 16 16 16 16 17 17 17
19 19 18 18 18 17 17 16 16 15 15 15 14 14 14 14 14 13 13 13 13 13 13 13 13 13 14 14 15 15 15 15 15 15 15 15 16 16 16 16 16 17 17
19 19 18 18 18 17 17 16 16 16 15 15 14 14 14 14 13 13 13 13 13 13 13 13 13 13 13 14 14 15 15 15 15 15 15 15 15 16 16 16 16 16 16
19 19 18 18 18 17 17 16 16 16 15 15 14 14 14 14 13 13 13 13 13 13 13 13 13 13 13 13 14 15 15 15 15 15 15 15 15 15 15 16 16 16 16
19 19 19 18 18 18 17 16 16 16 15 15 14 14 14 14 13 13 13 13 13 13 13 13 13 13 13 13 14 14 15 16 15 15 15 15 15 15 15 15 15 16 16
19 19 19 18 18 18 17 17 16 16 15 15 14 14 14 14 13 13 13 13 13 13 13 13 13 13 13 13 13 14 14 14 15 15 15 15 15 15 15 15 15 15 15
19 19 19 18 18 18 17 17 16 16 15 15 14 14 14 14 13 13 13 13 13 13 13 13 13 13 13 13 13 13 13 14 14 15 15 15 15 15 15 15 15 15 15
19 19 19 19 18 18 17 17 16 16 15 15 14 14 14 14 13 13 13 13 13 13 13 13 13 13 13 13 13 13 13 14 14 14 15 15 15 14 14 15 15 15 15
Wind_Speed
7 8 10 8 9 9 9 8 8 8 7 7 7 6 5 5 4 3 2 2 1 1 0 0 1 1 1 2 2 2 3 3 3 3 3 3 3 3 3 4 4 1 4
9 10 10 9 9 9 9 8 8 7 7 7 6 5 5 4 3 2 1 1 1 0 0 0 1 2 2 2 2 2 2 3 3 4 4 1 0 2 3 4 5 5 4
10 10 10 9 9 9 8 8 8 7 7 6 5 5 4 3 2 1 1 0 1 1 1 1 1 2 3 3 3 3 3 3 4 4 6 3 1 2 3 3 4 4 4
10 10 10 10 9 8 8 8 8 7 6 6 5 4 3 2 2 1 1 1 2 2 2 3 3 3 3 4 4 4 3 3 4 6 5 3 2 4 3 3 3 3 4
10 10 11 10 9 9 8 8 7 7 6 5 4 4 3 2 2 2 3 3 3 3 4 4 4 4 4 4 4 4 4 4 5 7 4 3 3 3 3 3 4 3 4
10 10 11 9 9 8 7 7 7 6 5 4 3 3 3 2 2 3 3 4 4 4 4 5 5 4 4 5 5 5 5 5 8 5 3 3 2 2 3 3 3 3 3
10 10 10 9 8 7 7 7 6 5 5 4 4 3 3 3 3 3 4 4 4 4 5 5 5 5 5 5 5 5 5 6 7 5 4 3 2 3 3 3 3 3 3
9 9 10 9 7 7 6 6 5 5 4 4 4 3 3 4 4 4 4 4 4 5 5 5 5 6 6 5 6 6 6 7 7 5 4 3 2 2 3 3 3 3 3
8 8 8 9 8 7 6 5 5 4 4 4 3 3 4 4 4 4 4 4 5 5 5 5 6 6 5 5 5 5 6 6 8 6 5 3 1 2 3 3 3 3 3
8 7 7 6 6 5 6 6 4 4 4 3 4 4 3 2 1 2 3 3 5 5 5 6 6 6 5 5 5 5 6 8 7 6 5 1 2 3 3 3 2 3 2
7 6 6 5 5 4 4 4 3 3 2 1 1 2 2 3 4 2 5 5 5 5 5 5 5 5 6 6 5 5 7 6 5 5 4 3 2 3 3 3 2 2 1
8 7 6 5 4 3 2 2 1 1 1 1 3 2 3 4 4 5 2 2 3 4 4 3 5 6 8 5 5 7 6 5 6 5 2 2 3 3 3 2 2 2 1
8 7 6 5 4 3 2 1 1 1 1 1 2 2 3 4 4 4 4 2 3 4 5 3 5 5 5 3 4 5 4 5 4 4 1 2 3 3 3 2 2 2 1
7 7 6 5 4 3 2 1 0 1 1 2 2 3 3 3 4 4 4 5 5 4 4 5 4 4 5 5 5 4 4 4 3 3 0 2 2 3 3 3 3 2 2
8 7 6 5 3 3 2 1 1 1 2 2 2 3 4 4 4 4 4 4 5 5 4 4 5 4 4 4 4 4 3 3 3 3 1 2 1 2 2 2 3 3 3
8 7 6 5 4 3 2 1 0 1 0 2 2 3 4 4 4 4 5 4 5 5 5 5 5 4 4 3 4 3 4 4 3 3 3 2 2 0 1 2 2 3 4
8 7 6 5 4 4 2 1 0 1 1 1 2 3 4 4 5 5 5 5 5 5 5 5 5 4 4 3 4 3 3 3 4 3 3 3 3 4 3 2 2 3 4
7 7 6 5 5 4 3 2 1 1 1 1 2 3 4 4 5 5 4 5 5 5 5 4 5 4 4 3 3 3 2 2 3 3 3 3 3 2 4 4 2 3 4
8 7 7 6 5 4 3 2 1 0 0 1 1 2 3 4 5 4 4 5 5 4 4 4 4 4 4 3 3 3 2 2 2 2 2 2 2 2 3 5 4 3 4
8 7 7 6 6 5 3 2 1 1 1 0 1 2 3 4 5 5 4 5 5 4 4 4 4 3 4 3 3 2 2 2 1 2 2 2 2 3 3 3 4 5 5
8 8 7 7 6 5 3 2 1 1 1 1 1 2 2 3 4 4 4 5 5 4 5 5 4 3 3 3 3 2 2 1 0 1 1 2 1 2 2 2 3 3 5
9 8 8 7 7 6 4 2 1 0 1 1 1 1 2 3 4 4 5 4 4 4 4 4 3 3 2 2 3 2 2 2 1 0 0 1 1 1 2 2 2 3 3
8 8 7 7 7 6 5 3 2 1 2 1 1 1 2 3 3 4 5 5 5 4 4 4 3 3 3 2 2 3 2 1 1 1 0 0 0 1 1 1 1 2 3
8 7 7 7 7 6 6 4 3 2 1 1 1 1 2 2 3 4 4 5 4 4 4 4 3 3 3 3 2 2 3 2 1 1 2 1 1 0 1 1 1 2 3
7 7 7 7 6 6 6 5 4 3 2 1 2 2 2 2 2 3 4 4 4 4 4 4 3 3 2 3 2 2 2 2 3 2 1 1 1 1 1 0 1 1 1
6 6 6 7 6 6 6 6 5 4 3 2 2 2 3 2 2 3 3 4 4 3 3 3 3 2 2 2 3 2 2 2 1 2 2 2 1 1 1 0 1 1 1
Wind_Direction
141 137 132 142 135 128 124 121 118 116 117 117 116 117 119 122 123 122 131 146 152 152 150 91 32 26 18 16 9 5 5 3 1 3 4 6 12 11 14 3 325 312 53
133 132 131 137 131 125 121 117 112 109 107 106 106 108 108 109 105 105 107 141 190 230 248 355 356 347 344 341 342 343 345 346 347 349 335 274 112 11 4 4 346 5 16
130 131 133 129 125 122 120 116 111 106 102 100 99 97 96 94 90 86 79 4 307 303 304 301 306 305 312 314 318 322 330 335 333 325 290 277 136 89 355 356 351 354 360
128 130 125 124 122 118 114 110 107 104 101 96 90 83 74 66 47 16 328 312 316 316 311 306 298 293 294 302 306 311 316 319 318 298 278 324 333 70 356 347 343 348 354
127 125 120 124 120 118 114 108 103 99 92 85 79 72 61 43 21 344 321 315 314 310 302 298 295 295 297 299 297 302 307 304 296 278 302 325 336 41 350 340 340 344 351
129 126 122 123 118 115 110 103 98 93 86 78 70 60 42 21 3 346 334 325 312 305 304 299 294 293 298 300 300 301 303 304 281 283 296 300 329 35 330 331 339 340 346
132 128 126 124 120 115 110 105 99 92 85 74 66 51 33 13 357 350 342 332 324 312 309 306 296 288 290 294 297 295 297 293 280 285 280 286 338 7 319 316 327 333 334
135 132 129 130 123 116 113 108 101 92 82 69 54 40 26 12 358 346 337 332 324 319 316 309 300 290 281 281 286 289 291 290 273 274 272 278 9 321 298 298 309 326 318
139 136 136 135 134 127 114 106 100 90 73 57 44 32 27 14 0 348 335 328 318 317 316 315 307 295 286 279 275 277 282 280 279 270 268 266 68 293 286 289 299 315 311
147 145 142 138 133 130 127 115 98 84 69 59 49 38 22 354 345 340 309 354 331 323 314 309 310 303 292 280 273 269 267 261 263 267 263 248 65 287 280 271 286 307 311
157 158 154 149 140 131 119 115 124 115 92 112 104 82 306 328 342 318 22 10 348 337 326 317 309 301 282 241 235 251 251 258 264 269 267 40 324 282 276 257 254 287 307
167 169 167 163 156 149 132 124 104 83 76 2 1 357 341 349 343 334 60 348 332 321 289 305 288 265 261 258 214 221 247 249 259 259 248 70 284 275 266 246 232 256 249
166 168 174 174 168 163 155 134 58 24 16 359 356 353 338 334 328 328 327 310 307 298 305 305 273 281 283 281 281 261 262 263 264 267 248 88 279 265 246 232 226 230 218
173 176 179 185 180 177 166 142 250 346 349 355 347 342 339 336 331 341 324 332 324 323 325 311 306 300 293 285 275 271 260 259 264 266 230 77 301 265 236 233 216 212 210
179 184 183 185 190 182 164 206 265 346 339 359 0 334 338 331 332 337 325 327 318 322 313 308 302 310 300 292 288 283 279 270 265 266 222 105 345 299 241 228 209 203 200
185 185 180 186 188 200 197 216 306 334 319 332 347 339 340 343 337 334 330 328 324 322 319 308 303 302 295 292 284 285 284 283 276 268 263 195 171 227 257 224 196 191 189
189 188 185 188 192 200 215 220 251 292 316 340 349 341 348 346 336 336 331 331 330 322 313 308 304 297 291 284 272 274 276 280 280 274 261 257 215 173 170 193 184 184 181
190 189 185 186 193 193 199 214 224 291 326 338 345 344 344 345 343 339 332 333 334 327 318 310 302 294 286 287 285 279 277 270 274 281 256 238 242 227 167 151 162 177 182
195 193 189 187 190 184 185 192 200 221 307 332 343 353 345 345 339 338 336 334 335 330 325 319 316 308 300 300 289 271 276 279 290 287 276 262 241 230 207 149 161 165 169
197 196 188 182 187 178 180 186 171 205 231 325 345 357 346 340 342 338 331 334 336 330 331 323 316 306 300 292 290 294 284 278 277 292 300 283 251 229 214 186 177 160 153
197 196 189 188 183 181 179 194 204 217 238 269 317 338 335 337 339 339 329 337 335 335 329 322 318 306 296 296 276 267 235 217 257 288 294 286 248 231 205 196 196 174 161
196 196 195 193 188 185 184 194 206 238 274 311 300 313 331 335 335 333 334 330 333 328 325 325 319 308 307 295 282 267 242 191 164 147 282 264 258 207 195 191 187 180 186
197 197 197 193 186 184 180 177 171 181 228 221 259 302 329 330 333 333 332 327 328 326 332 325 316 307 305 304 304 293 278 264 175 159 92 234 230 212 201 204 215 199 186
197 196 198 191 188 182 182 193 204 233 276 305 299 306 307 313 328 329 325 321 321 326 326 321 325 305 296 295 286 290 304 325 282 197 166 161 132 159 187 208 226 214 201
194 193 194 189 188 183 189 192 216 240 274 289 281 285 294 310 320 325 323 321 320 319 325 326 323 309 295 296 296 288 277 274 272 273 212 182 163 139 143 202 225 239 211
190 188 189 189 190 186 194 202 217 233 249 263 270 286 288 297 312 332 325 319 316 319 319 318 315 307 299 296 292 289 287 283 290 271 247 210 191 150 141 157 244 255 241
Height
1516 1517 1518 1519 1520 1522 1523 1524 1524 1525 1526 1527 1527 1528 1528 1528 1529 1529 1530 1530 1530 1530 1529 1529 1529 1529 1528 1528 1528 1527 1527 1526 1526 1525 1525 1524 1523 1522 1522 1521 1520 1521 1519
1517 1518 1518 1520 1521 1522 1524 1524 1525 1526 1527 1527 1528 1528 1528 1529 1529 1529 1529 1530 1530 1530 1529 1529 1529 1529 1528 1528 1528 1527 1527 1526 1526 1525 1525 1525 1524 1523 1522 1521 1521 1520 1519
1518 1519 1520 1521 1522 1524 1524 1525 1526 1526 1527 1527 1528 1528 1528 1528 1529 1529 1529 1529 1529 1529 1529 1529 1529 1528 1528 1528 1528 1527 1527 1526 1526 1526 1525 1526 1525 1523 1523 1522 1521 1520 1519
1519 1521 1522 1522 1524 1525 1525 1526 1527 1527 1527 1527 1528 1528 1528 1528 1528 1528 1528 1528 1528 1528 1528 1528 1528 1528 1528 1528 1527 1527 1527 1526 1526 1526 1527 1527 1526 1524 1523 1522 1521 1520 1519
1521 1522 1522 1523 1525 1525 1526 1527 1527 1527 1527 1527 1527 1528 1528 1528 1528 1527 1527 1528 1528 1528 1527 1527 1527 1527 1527 1527 1527 1527 1526 1526 1526 1526 1526 1526 1525 1524 1523 1522 1521 1521 1520
1522 1523 1524 1525 1525 1526 1527 1527 1527 1527 1527 1527 1527 1527 1527 1527 1527 1527 1526 1526 1527 1526 1526 1526 1526 1526 1526 1526 1526 1526 1526 1526 1525 1526 1526 1525 1525 1524 1523 1522 1522 1521 1520
1524 1525 1525 1526 1526 1527 1527 1528 1528 1528 1528 1528 1527 1527 1527 1527 1526 1526 1526 1526 1525 1525 1525 1525 1525 1525 1524 1524 1525 1525 1525 1525 1525 1526 1525 1525 1524 1523 1523 1522 1522 1521 1520
1525 1526 1526 1527 1527 1528 1528 1528 1528 1528 1528 1528 1528 1527 1527 1527 1526 1525 1525 1525 1524 1524 1524 1523 1523 1523 1523 1523 1523 1523 1523 1524 1525 1526 1525 1525 1524 1523 1523 1522 1522 1521 1520
1526 1527 1528 1529 1529 1529 1529 1529 1529 1529 1528 1528 1528 1527 1527 1526 1525 1525 1524 1524 1523 1523 1522 1522 1522 1521 1521 1521 1521 1522 1522 1522 1523 1524 1525 1524 1523 1523 1522 1522 1522 1521 1520
1527 1528 1529 1530 1531 1531 1530 1530 1529 1529 1529 1528 1528 1527 1527 1526 1525 1524 1524 1523 1522 1521 1521 1520 1520 1520 1520 1520 1520 1520 1520 1521 1522 1523 1523 1523 1522 1522 1522 1522 1521 1521 1520
1528 1529 1530 1531 1531 1531 1531 1530 1530 1529 1529 1528 1528 1527 1527 1527 1526 1525 1523 1522 1521 1520 1520 1519 1518 1518 1518 1518 1518 1518 1519 1520 1521 1522 1522 1521 1521 1521 1521 1521 1521 1521 1520
1528 1529 1530 1531 1531 1532 1531 1531 1531 1531 1529 1529 1528 1527 1527 1526 1525 1524 1522 1521 1520 1519 1519 1518 1517 1517 1517 1518 1517 1517 1518 1519 1519 1520 1520 1519 1520 1520 1520 1521 1520 1520 1520
1528 1530 1530 1531 1532 1532 1532 1531 1531 1530 1529 1529 1528 1527 1526 1526 1525 1524 1523 1521 1520 1519 1519 1517 1517 1517 1517 1516 1516 1517 1517 1517 1518 1518 1518 1518 1519 1519 1520 1520 1520 1520 1520
1528 1530 1530 1531 1532 1532 1532 1531 1531 1531 1530 1529 1528 1527 1526 1525 1524 1523 1522 1521 1519 1518 1517 1517 1516 1516 1515 1515 1515 1515 1515 1516 1516 1516 1516 1516 1517 1518 1519 1519 1520 1520 1520
1528 1529 1530 1531 1531 1532 1531 1531 1531 1530 1530 1529 1527 1527 1526 1525 1524 1522 1521 1519 1519 1517 1517 1515 1515 1514 1514 1513 1513 1513 1514 1514 1515 1515 1515 1515 1516 1517 1518 1518 1519 1519 1520
1528 1529 1530 1530 1531 1531 1531 1531 1530 1530 1528 1528 1527 1526 1525 1524 1523 1521 1520 1519 1517 1516 1515 1514 1514 1513 1513 1512 1512 1512 1512 1512 1513 1513 1514 1514 1514 1516 1517 1517 1518 1519 1520
1527 1528 1529 1530 1530 1530 1530 1530 1529 1529 1529 1528 1527 1526 1525 1523 1522 1521 1519 1518 1517 1515 1514 1513 1513 1512 1512 1511 1511 1511 1511 1511 1511 1512 1512 1513 1514 1514 1515 1516 1517 1518 1519
1526 1527 1528 1528 1529 1529 1529 1529 1529 1528 1528 1527 1526 1525 1524 1523 1521 1519 1518 1517 1515 1514 1513 1512 1512 1511 1511 1510 1510 1510 1510 1509 1510 1510 1511 1511 1512 1514 1514 1515 1516 1517 1518
1525 1526 1527 1528 1528 1528 1528 1528 1528 1528 1527 1526 1525 1524 1523 1522 1520 1519 1517 1516 1515 1513 1512 1511 1511 1510 1510 1509 1509 1508 1508 1508 1508 1509 1509 1510 1511 1512 1514 1514 1515 1516 1518
1523 1525 1526 1526 1527 1527 1527 1527 1527 1527 1526 1525 1524 1523 1522 1521 1519 1518 1517 1516 1514 1513 1511 1510 1510 1508 1508 1508 1508 1507 1507 1507 1507 1508 1508 1509 1510 1511 1512 1513 1515 1515 1517
1521 1523 1524 1525 1526 1526 1526 1526 1526 1526 1525 1525 1524 1522 1521 1520 1519 1517 1516 1515 1513 1512 1511 1510 1509 1508 1507 1507 1507 1507 1506 1506 1506 1506 1507 1508 1509 1510 1511 1512 1514 1515 1516
1520 1521 1523 1524 1524 1525 1525 1525 1525 1525 1524 1524 1522 1522 1521 1519 1518 1517 1516 1514 1513 1511 1510 1508 1507 1507 1506 1506 1506 1506 1506 1507 1506 1506 1506 1507 1508 1509 1510 1511 1513 1514 1515
1518 1520 1521 1522 1523 1523 1524 1524 1524 1524 1523 1523 1522 1521 1520 1519 1517 1516 1514 1513 1512 1511 1509 1508 1507 1506 1506 1506 1506 1506 1506 1505 1505 1506 1506 1506 1507 1508 1509 1510 1511 1512 1514
1516 1518 1520 1521 1522 1522 1522 1523 1523 1523 1523 1523 1522 1521 1520 1518 1517 1515 1514 1512 1511 1510 1509 1507 1506 1505 1505 1505 1505 1505 1505 1505 1505 1505 1506 1505 1506 1507 1508 1509 1510 1511 1512
1515 1516 1518 1519 1520 1521 1521 1522 1522 1522 1522 1522 1521 1520 1519 1518 1516 1515 1513 1512 1510 1509 1508 1506 1505 1505 1504 1504 1504 1504 1504 1504 1505 1505 1505 1505 1506 1506 1506 1507 1508 1510 1511
1513 1515 1516 1517 1518 1519 1520 1520 1521 1521 1521 1520 1520 1519 1519 1518 1516 1515 1513 1511 1510 1509 1507 1506 1505 1504 1504 1503 1503 1504 1504 1504 1504 1504 1504 1505 1505 1506 1506 1506 1507 1508 1509